• In United Kingdom
  • List of Countries
  • For 7 days
  • Water Temperature
  • Satellite Maps
  • Weather Map
  • Weather Widgets
  • user-avatar
    Login

    Hourly Weather Baraki Barak

    Today, 23 September, Sunday

    Time Temperature Precipitation Wind Pressure Humidity
    00:00 +19°C° 0 mm 1 mps 600 mmHg 30%
    01:00 +18°C° 0 mm 1 mps 600 mmHg 31%
    02:00 +16°C° 0 mm 1 mps 599 mmHg 33%
    03:00 +16°C° 0 mm 1 mps 599 mmHg 35%
    04:00 +15°C° 0 mm 1 mps 599 mmHg 37%
    05:00 +13°C° 0 mm 0 mps 599 mmHg 41%
    06:00 +14°C° 0 mm 0 mps 599 mmHg 37%
    07:00 +15°C° 0 mm 0 mps 600 mmHg 34%
    08:00 +16°C° 0 mm 0 mps 600 mmHg 31%
    09:00 +20°C° 0 mm 1 mps 601 mmHg 27%
    10:00 +21°C° 0 mm 1 mps 601 mmHg 23%
    11:00 +22°C° 0 mm 1 mps 601 mmHg 19%
    12:00 +23°C° 0 mm 2 mps 601 mmHg 17%
    13:00 +24°C° 0 mm 2 mps 601 mmHg 15%
    14:00 +25°C° 0 mm 2 mps 601 mmHg 14%
    15:00 +25°C° 0 mm 2 mps 601 mmHg 13%
    16:00 +25°C° 0 mm 2 mps 601 mmHg 13%
    17:00 +25°C° 0 mm 2 mps 601 mmHg 12%
    18:00 +24°C° 0 mm 2 mps 601 mmHg 15%
    19:00 +21°C° 0 mm 2 mps 600 mmHg 18%
    20:00 +20°C° 0 mm 2 mps 600 mmHg 21%
    21:00 +19°C° 0 mm 2 mps 600 mmHg 24%
    22:00 +19°C° 0 mm 1 mps 600 mmHg 28%
    23:00 +19°C° 0 mm 1 mps 600 mmHg 32%

    Tomorrow, 24 September, Monday

    Time Temperature Precipitation Wind Pressure Humidity
    00:00 +18°C° 0 mm 1 mps 599 mmHg 36%
    01:00 +16°C° 0 mm 1 mps 599 mmHg 41%
    02:00 +16°C° 0 mm 1 mps 599 mmHg 45%
    03:00 +15°C° 0 mm 1 mps 598 mmHg 45%
    04:00 +15°C° 0 mm 1 mps 598 mmHg 45%
    05:00 +14°C° 0 mm 1 mps 598 mmHg 46%
    06:00 +15°C° 0 mm 1 mps 598 mmHg 40%
    07:00 +16°C° 0 mm 1 mps 599 mmHg 34%
    08:00 +18°C° 0 mm 1 mps 599 mmHg 29%
    09:00 +20°C° 0 mm 1 mps 600 mmHg 26%
    10:00 +21°C° 0 mm 1 mps 600 mmHg 22%
    11:00 +22°C° 0 mm 1 mps 600 mmHg 19%
    12:00 +23°C° 0 mm 1 mps 600 mmHg 18%
    13:00 +24°C° 0 mm 1 mps 600 mmHg 16%
    14:00 +25°C° 0 mm 1 mps 600 mmHg 15%
    15:00 +25°C° 0 mm 1 mps 600 mmHg 15%
    16:00 +25°C° 0 mm 2 mps 600 mmHg 15%
    17:00 +26°C° 0 mm 2 mps 600 mmHg 14%
    18:00 +24°C° 0 mm 2 mps 600 mmHg 17%
    19:00 +23°C° 0 mm 2 mps 600 mmHg 19%
    20:00 +21°C° 0 mm 2 mps 600 mmHg 21%
    21:00 +20°C° 0 mm 2 mps 599 mmHg 22%
    22:00 +20°C° 0 mm 1 mps 599 mmHg 24%
    23:00 +19°C° 0 mm 1 mps 599 mmHg 25%

    Day after tomorrow, 25 September, Tuesday

    Time Temperature Precipitation Wind Pressure Humidity
    00:00 +19°C° 0 mm 1 mps 598 mmHg 25%
    01:00 +18°C° 0 mm 1 mps 598 mmHg 26%
    02:00 +16°C° 0 mm 1 mps 598 mmHg 26%
    03:00 +16°C° 0 mm 1 mps 597 mmHg 26%
    04:00 +15°C° 0 mm 1 mps 597 mmHg 25%
    05:00 +15°C° 0 mm 1 mps 597 mmHg 25%
    06:00 +16°C° 0 mm 1 mps 598 mmHg 23%
    07:00 +18°C° 0 mm 1 mps 598 mmHg 20%
    08:00 +19°C° 0 mm 1 mps 599 mmHg 18%
    09:00 +20°C° 0 mm 1 mps 600 mmHg 17%
    10:00 +22°C° 0 mm 1 mps 600 mmHg 15%
    11:00 +23°C° 0 mm 1 mps 600 mmHg 14%
    12:00 +24°C° 0 mm 1 mps 600 mmHg 13%
    13:00 +25°C° 0 mm 1 mps 600 mmHg 12%
    14:00 +26°C° 0 mm 1 mps 600 mmHg 10%
    15:00 +26°C° 0 mm 2 mps 600 mmHg 11%
    16:00 +26°C° 0 mm 2 mps 600 mmHg 11%
    17:00 +26°C° 0 mm 2 mps 600 mmHg 11%
    18:00 +24°C° 0.1 mm 2 mps 600 mmHg 14%
    19:00 +23°C° 0.1 mm 2 mps 600 mmHg 17%
    20:00 +21°C° 0.1 mm 2 mps 599 mmHg 20%
    21:00 +20°C° 0 mm 2 mps 599 mmHg 23%
    22:00 +19°C° 0 mm 2 mps 599 mmHg 25%
    23:00 +19°C° 0 mm 1 mps 599 mmHg 27%

    26 September, Wednesday

    Time Temperature Precipitation Wind Pressure Humidity
    00:00 +18°C° 0 mm 1 mps 599 mmHg 29%
    01:00 +18°C° 0 mm 1 mps 598 mmHg 31%
    02:00 +16°C° 0 mm 1 mps 598 mmHg 33%
    03:00 +16°C° 0 mm 1 mps 597 mmHg 33%
    04:00 +15°C° 0 mm 1 mps 597 mmHg 34%
    05:00 +14°C° 0 mm 1 mps 597 mmHg 35%
    06:00 +15°C° 0 mm 1 mps 597 mmHg 31%
    07:00 +18°C° 0 mm 1 mps 598 mmHg 28%
    08:00 +19°C° 0 mm 1 mps 599 mmHg 24%
    09:00 +20°C° 0 mm 1 mps 599 mmHg 21%
    10:00 +21°C° 0 mm 1 mps 600 mmHg 18%
    11:00 +23°C° 0 mm 1 mps 600 mmHg 15%
    12:00 +24°C° 0 mm 1 mps 600 mmHg 14%
    13:00 +25°C° 0 mm 1 mps 600 mmHg 13%
    14:00 +26°C° 0 mm 2 mps 599 mmHg 12%
    15:00 +26°C° 0 mm 2 mps 599 mmHg 12%
    16:00 +26°C° 0 mm 2 mps 599 mmHg 12%
    17:00 +26°C° 0 mm 3 mps 599 mmHg 13%
    18:00 +24°C° 0 mm 2 mps 599 mmHg 15%
    19:00 +23°C° 0 mm 2 mps 599 mmHg 17%
    20:00 +21°C° 0 mm 2 mps 600 mmHg 19%
    21:00 +21°C° 0.1 mm 2 mps 599 mmHg 21%
    22:00 +20°C° 0.1 mm 2 mps 599 mmHg 24%
    23:00 +19°C° 0.1 mm 2 mps 599 mmHg 26%

    27 September, Thursday

    Time Temperature Precipitation Wind Pressure Humidity
    00:00 +19°C° 0.1 mm 2 mps 599 mmHg 27%
    01:00 +18°C° 0.1 mm 2 mps 599 mmHg 28%
    02:00 +18°C° 0.1 mm 2 mps 598 mmHg 29%
    03:00 +17°C° 0 mm 2 mps 598 mmHg 30%
    04:00 +16°C° 0 mm 2 mps 598 mmHg 32%
    05:00 +16°C° 0 mm 1 mps 597 mmHg 33%
    06:00 +16°C° 0 mm 1 mps 598 mmHg 32%
    07:00 +16°C° 0 mm 1 mps 598 mmHg 30%
    08:00 +17°C° 0 mm 2 mps 599 mmHg 29%
    09:00 +18°C° 0.1 mm 2 mps 599 mmHg 28%
    10:00 +19°C° 0.1 mm 2 mps 600 mmHg 28%
    11:00 +20°C° 0.1 mm 2 mps 600 mmHg 27%
    12:00 +20°C° 0.3 mm 2 mps 600 mmHg 27%
    13:00 +21°C° 0.3 mm 2 mps 600 mmHg 27%
    14:00 +22°C° 0.3 mm 3 mps 600 mmHg 27%
    15:00 +21°C° 0.2 mm 3 mps 600 mmHg 28%
    16:00 +21°C° 0.2 mm 2 mps 599 mmHg 29%
    17:00 +21°C° 0.2 mm 2 mps 599 mmHg 31%
    18:00 +20°C° 0.2 mm 2 mps 599 mmHg 33%
    19:00 +19°C° 0.2 mm 3 mps 599 mmHg 36%
    20:00 +18°C° 0.2 mm 3 mps 599 mmHg 39%
    21:00 +17°C° 0.1 mm 3 mps 600 mmHg 41%
    22:00 +17°C° 0.1 mm 3 mps 600 mmHg 42%
    23:00 +16°C° 0.1 mm 3 mps 600 mmHg 44%

    28 September, Friday

    Time Temperature Precipitation Wind Pressure Humidity
    00:00 +16°C° 0 mm 2 mps 599 mmHg 45%
    01:00 +15°C° 0 mm 2 mps 599 mmHg 45%
    02:00 +15°C° 0 mm 2 mps 598 mmHg 46%
    03:00 +14°C° 0 mm 2 mps 598 mmHg 47%
    04:00 +14°C° 0 mm 2 mps 598 mmHg 48%
    05:00 +13°C° 0 mm 2 mps 598 mmHg 49%
    06:00 +14°C° 0 mm 2 mps 599 mmHg 47%
    07:00 +14°C° 0 mm 2 mps 599 mmHg 44%
    08:00 +15°C° 0 mm 2 mps 600 mmHg 42%
    09:00 +16°C° 0 mm 2 mps 600 mmHg 37%
    10:00 +17°C° 0 mm 2 mps 600 mmHg 33%
    11:00 +19°C° 0 mm 2 mps 601 mmHg 29%
    12:00 +20°C° 0 mm 2 mps 601 mmHg 26%
    13:00 +21°C° 0 mm 1 mps 600 mmHg 24%
    14:00 +22°C° 0 mm 1 mps 600 mmHg 21%
    15:00 +21°C° 0.1 mm 2 mps 600 mmHg 21%
    16:00 +21°C° 0.1 mm 2 mps 600 mmHg 21%
    17:00 +21°C° 0.1 mm 2 mps 601 mmHg 20%
    18:00 +20°C° 0.1 mm 2 mps 601 mmHg 23%
    19:00 +19°C° 0.1 mm 2 mps 601 mmHg 25%
    20:00 +19°C° 0.1 mm 2 mps 601 mmHg 28%
    21:00 +18°C° 0 mm 2 mps 601 mmHg 29%
    22:00 +17°C° 0 mm 2 mps 600 mmHg 30%
    23:00 +16°C° 0 mm 2 mps 600 mmHg 32%
    Show more